Location: ??
(35.1714°N, 128.2806°E)
Time: 15:11:20
(UTC+00:00)

deb Chang Zheng 4 - Pass Details

Date: 29 October 2020
Orbit: 602 x 624 km, 98.6° (Epoch: 01 December)

Event Time Altitude Azimuth Distance (km) Brightness Sun altitude
Rises 20:07:17 0° 12° (NNE) 2,863 7.1 -20.7°
Reaches altitude 10° 20:09:27 10° 12° (NNE) 1,958 6.2 -20.3°
Maximum altitude 20:13:42 88° 287° (WNW) 613 3.4 -19.4°
Drops below altitude 10° 20:17:58 10° 195° (SSW) 1,958 6.0 -18.5°
Sets 20:20:08 0° 195° (SSW) 2,862 6.9 -18.1°
